Liberia, Costa Rica

6:09 AM CST on April 27, 2017 (GMT -0600)
Liberia

Weather History for 78774 - January, 2014

Change the Weather History Date:

Wednesday, January 22, 2014

  Actual Average Record
Temperature  
Mean Temperature 80 °F -  
Max Temperature 89 °F 89 °F - ()
Min Temperature 72 °F 74 °F - ()
Cooling Degree Days 16    
Growing Degree Days 30 (Base 50)    
Moisture  
Dew Point 63 °F    
Average Humidity 47    
Maximum Humidity 65    
Minimum Humidity 32    
Precipitation  
Precipitation 0.00 in - - ()
Sea Level Pressure  
Sea Level Pressure 29.84 in    
Wind  
Wind Speed 14 mph ()    
Max Wind Speed 24 mph    
Max Gust Speed 33 mph    
Visibility 9.1 miles    
Events      
T = Trace of Precipitation, MM = Missing Value Source: Averaged Metar Reports

Daily Weather History Graph

Daily Weather History Graph

Search for Another Location

Airport or City:

Trip Planner

Search our weather history database for the weather conditions in past years. The results will help you decide how hot, cold, wet, or windy it might be!

Date:

Astronomy

Jan. 22, 2014 Rise Set
Actual Time 6:05 AM CST 5:42 PM CST
Civil Twilight 5:43 AM CST 6:04 PM CST
Nautical Twilight 5:17 AM CST 6:30 PM CST
Astronomical Twilight 4:51 AM CST 6:55 PM CST
Moon 10:55 PM CST (1/22) 10:18 AM CST (1/22)
Length of Visible Light 12h 21m
Length of Day
11h 36m
Waning Gibbous, 65% of the Moon is Illuminated
Jan 22
Waning Gibbous
Jan 23
Last Quarter
Jan 30
New
Feb 6
First Quarter
Feb 14
Full

Hourly Weather History & Observations

Time (CST) Temp. Heat Index Dew Point Humidity Pressure Visibility Wind Dir Wind Speed Gust Speed Precip Events Conditions
6:00 AM 77 °F - 64 °F 56% 29.85 in 12 mi ENE 8.1 mph - -  
6:00 AM 77.0 °F - 64.4 °F 65% 29.83 in - ENE 8.1 mph - N/A   Clear
7:00 AM 77.0 °F - 64.4 °F 65% 29.86 in - NE 9.2 mph - N/A   Clear
8:00 AM 82.4 °F 83.4 °F 62.6 °F 51% 29.86 in - East 20.7 mph 32.2 mph N/A   Clear
9:00 AM 87 °F - 63 °F 34% 29.89 in 12 mi ENE 17.3 mph - -  
9:00 AM 86.0 °F 86.6 °F 62.6 °F 45% 29.88 in - ENE 17.3 mph 28.8 mph N/A   Clear
10:00 AM 86.0 °F 87.3 °F 64.4 °F 48% 29.87 in 6.2 mi East 20.7 mph - N/A   Partly Cloudy
11:00 AM 87.8 °F 88.5 °F 62.6 °F 43% 29.86 in 6.2 mi East 18.4 mph 29.9 mph N/A   Partly Cloudy
12:00 PM 87 °F - 62 °F 33% 29.86 in 12 mi East 20.7 mph - -  
12:00 PM 87.8 °F 88.5 °F 62.6 °F 43% 29.84 in - East 20.7 mph - N/A   Clear
1:00 PM 89.6 °F 90.1 °F 62.6 °F 40% 29.82 in - East 20.7 mph - N/A   Clear
2:00 PM 87.8 °F 87.6 °F 60.8 °F 40% 29.79 in - East 24.2 mph - N/A   Clear
3:00 PM 88 °F - 62 °F 32% 29.79 in 12 mi East 21.9 mph - -  
3:00 PM 87.8 °F 88.5 °F 62.6 °F 43% 29.78 in - East 21.9 mph 33.4 mph N/A   Clear
4:00 PM 86.0 °F 87.3 °F 64.4 °F 48% 29.79 in - East 17.3 mph - N/A   Clear
5:00 PM 84.2 °F 85.6 °F 64.4 °F 51% 29.80 in - East 17.3 mph 28.8 mph N/A   Clear
6:00 PM 82 °F - 63 °F 43% 29.83 in 12 mi East 15.0 mph - -   Scattered Clouds
6:00 PM 82.4 °F 83.4 °F 62.6 °F 51% 29.82 in 6.2 mi East 15.0 mph - N/A   Partly Cloudy
7:00 PM 80.6 °F 81.8 °F 62.6 °F 54% 29.85 in 6.2 mi ENE 16.1 mph - N/A   Partly Cloudy
8:00 PM 78.8 °F - 62.6 °F 57% 29.87 in 6.2 mi East 10.4 mph - N/A   Partly Cloudy